| time (UTC) | temp F | wind direction | speed MPH | gust MPH | rain 1hr in | rain 24hr in | rain mn in | humidity % | barometer mb |
| 20260510011758 | 69 | 132 | 0.0 | 4.0 | 0.07 | 1.35 | 0.93 | 91 | 1012.0 |
| 20260510011315 | 69 | 132 | 1.0 | 4.0 | 0.07 | 1.34 | 0.92 | 91 | 1011.8 |
| 20260510010812 | 69 | 104 | 0.0 | 4.0 | 0.07 | 1.34 | 0.92 | 91 | 1011.8 |
| 20260510010309 | 69 | 154 | 1.0 | 4.0 | 0.07 | 1.33 | 0.91 | 91 | 1011.9 |
| 20260510005805 | 69 | 132 | 0.0 | 2.0 | 0.07 | 1.32 | 0.90 | 91 | 1011.9 |
| 20260510005300 | 69 | 102 | 0.0 | 5.0 | 0.07 | 1.32 | 0.90 | 91 | 1012.0 |
| 20260510004816 | 69 | 99 | 1.0 | 5.0 | 0.07 | 1.31 | 0.89 | 91 | 1011.9 |
| 20260510004313 | 69 | 113 | 0.0 | 6.0 | 0.08 | 1.31 | 0.89 | 91 | 1011.9 |
| 20260510003809 | 69 | 86 | 2.0 | 6.0 | 0.07 | 1.30 | 0.88 | 91 | 1011.9 |
| 20260510003305 | 69 | 152 | 0.0 | 0.0 | 0.08 | 1.30 | 0.88 | 91 | 1011.9 |
| 20260510002802 | 69 | 137 | 0.0 | 0.0 | 0.08 | 1.29 | 0.87 | 91 | 1011.9 |
| 20260510002319 | 69 | 137 | 0.0 | 0.0 | 0.07 | 1.28 | 0.86 | 91 | 1011.9 |
| 20260510001836 | 69 | 164 | 0.0 | 0.0 | 0.08 | 1.28 | 0.86 | 91 | 1012.0 |
| 20260510001312 | 69 | 164 | 0.0 | 0.0 | 0.08 | 1.36 | 0.85 | 91 | 1011.9 |
| 20260510000807 | 69 | 155 | 0.0 | 0.0 | 0.08 | 1.35 | 0.84 | 90 | 1011.9 |
| 20260510000320 | 69 | 155 | 0.0 | 0.0 | 0.08 | 1.35 | 0.84 | 91 | 1011.8 |
| 20260509235814 | 69 | 155 | 0.0 | 0.0 | 0.08 | 1.34 | 0.83 | 91 | 1011.8 |
| 20260509235310 | 69 | 118 | 0.0 | 0.0 | 0.09 | 1.34 | 0.83 | 91 | 1011.9 |
| 20260509234808 | 69 | 172 | 0.0 | 0.0 | 0.08 | 1.33 | 0.82 | 90 | 1011.8 |
| 20260509234325 | 69 | 160 | 0.0 | 0.0 | 0.08 | 1.32 | 0.81 | 91 | 1011.7 |
| 20260509233800 | 69 | 121 | 0.0 | 0.0 | 0.09 | 1.32 | 0.81 | 91 | 1011.8 |
| 20260509233317 | 70 | 167 | 0.0 | 0.0 | 0.09 | 1.31 | 0.80 | 91 | 1011.8 |
| 20260509232833 | 70 | 132 | 0.0 | 0.0 | 0.08 | 1.30 | 0.79 | 91 | 1011.8 |
| 20260509232327 | 70 | 132 | 0.0 | 0.0 | 0.09 | 1.30 | 0.79 | 91 | 1012.2 |
| 20260509231824 | 70 | 132 | 0.0 | 0.0 | 0.09 | 1.29 | 0.78 | 91 | 1012.2 |
| 20260509231258 | 70 | 132 | 0.0 | 0.0 | 0.09 | 1.42 | 0.77 | 91 | 1012.1 |
| 20260509230815 | 70 | 132 | 0.0 | 0.0 | 0.09 | 1.41 | 0.76 | 91 | 1012.1 |
| 20260509230313 | 70 | 119 | 0.0 | 0.0 | 0.09 | 1.41 | 0.76 | 91 | 1012.0 |
| 20260509225809 | 70 | 229 | 0.0 | 0.0 | 0.09 | 1.40 | 0.75 | 91 | 1012.2 |
| 20260509225306 | 70 | 236 | 0.0 | 0.0 | 0.09 | 1.39 | 0.74 | 91 | 1012.0 |
| 20260509224801 | 70 | 147 | 0.0 | 0.0 | 0.10 | 1.39 | 0.74 | 91 | 1011.8 |
| 20260509224258 | 70 | 207 | 0.0 | 0.0 | 0.10 | 1.38 | 0.73 | 91 | 1011.8 |
| 20260509223814 | 70 | 193 | 0.0 | 0.0 | 0.10 | 1.37 | 0.72 | 90 | 1011.8 |
| 20260509223311 | 70 | 195 | 0.0 | 0.0 | 0.09 | 1.36 | 0.71 | 91 | 1011.7 |
| 20260509222807 | 70 | 202 | 0.0 | 0.0 | 0.10 | 1.36 | 0.71 | 91 | 1011.4 |
| 20260509222306 | 70 | 185 | 0.0 | 0.0 | 0.10 | 1.35 | 0.70 | 91 | 1011.1 |
| 20260509221820 | 70 | 180 | 0.0 | 0.0 | 0.10 | 1.34 | 0.69 | 90 | 1011.0 |
| 20260509221336 | 70 | 180 | 0.0 | 0.0 | 0.10 | 1.52 | 0.68 | 91 | 1011.0 |
| 20260509220832 | 70 | 180 | 0.0 | 0.0 | 0.10 | 1.51 | 0.67 | 91 | 1011.0 |
| 20260509220306 | 69 | 180 | 0.0 | 0.0 | 0.11 | 1.51 | 0.67 | 91 | 1011.1 |
| 20260509215803 | 69 | 180 | 0.0 | 0.0 | 0.11 | 1.50 | 0.66 | 91 | 1011.3 |
| 20260509215320 | 69 | 180 | 0.0 | 0.0 | 0.10 | 1.49 | 0.65 | 91 | 1011.4 |
| 20260509214833 | 69 | 159 | 0.0 | 0.0 | 0.11 | 1.48 | 0.64 | 91 | 1011.6 |
| 20260509214309 | 69 | 186 | 0.0 | 0.0 | 0.10 | 1.47 | 0.63 | 91 | 1011.7 |
| 20260509213804 | 69 | 330 | 0.0 | 0.0 | 0.10 | 1.46 | 0.62 | 91 | 1011.6 |
| 20260509213300 | 69 | 180 | 0.0 | 0.0 | 0.11 | 1.46 | 0.62 | 91 | 1011.4 |
| 20260509212816 | 69 | 179 | 0.0 | 0.0 | 0.11 | 1.45 | 0.61 | 91 | 1011.1 |
| 20260509212312 | 69 | 162 | 0.0 | 0.0 | 0.11 | 1.44 | 0.60 | 91 | 1010.9 |
| 20260509211807 | 69 | 167 | 0.0 | 0.0 | 0.11 | 1.43 | 0.59 | 91 | 1011.0 |
| 20260509211303 | 69 | 136 | 0.0 | 0.0 | 0.11 | 1.61 | 0.58 | 91 | 1010.9 |
| 20260509210801 | 69 | 173 | 0.0 | 0.0 | 0.10 | 1.60 | 0.57 | 92 | 1010.8 |
| 20260509210319 | 69 | 117 | 0.0 | 0.0 | 0.10 | 1.59 | 0.56 | 92 | 1010.8 |
| 20260509205834 | 69 | 128 | 0.0 | 5.0 | 0.10 | 1.58 | 0.55 | 92 | 1010.8 |
| 20260509204833 | 69 | 118 | 1.0 | 4.0 | 0.10 | 1.56 | 0.53 | 92 | 1010.7 |
| 20260509203810 | 69 | 162 | 0.0 | 3.0 | 0.11 | 1.55 | 0.52 | 92 | 1010.8 |
| 20260509203259 | 69 | 153 | 1.0 | 3.0 | 0.11 | 1.54 | 0.51 | 92 | 1011.0 |
| 20260509202813 | 69 | 161 | 0.0 | 0.0 | 0.11 | 1.53 | 0.50 | 92 | 1011.3 |
| 20260509202309 | 69 | 156 | 0.0 | 0.0 | 0.11 | 1.52 | 0.49 | 92 | 1011.3 |
| 20260509201805 | 68 | 203 | 0.0 | 0.0 | 0.11 | 1.51 | 0.48 | 92 | 1011.6 |
| 20260509201301 | 68 | 203 | 0.0 | 1.0 | 0.11 | 1.50 | 0.47 | 92 | 1011.9 |
| 20260509200816 | 68 | 203 | 0.0 | 1.0 | 0.12 | 1.50 | 0.47 | 92 | 1012.1 |
| 20260509200311 | 68 | 203 | 0.0 | 3.0 | 0.12 | 1.49 | 0.46 | 92 | 1012.2 |
| 20260509195808 | 68 | 192 | 0.0 | 2.0 | 0.12 | 1.48 | 0.45 | 92 | 1012.0 |
| 20260509195306 | 68 | 146 | 0.0 | 1.0 | 0.12 | 1.47 | 0.44 | 92 | 1012.1 |
| 20260509194800 | 68 | 146 | 0.0 | 1.0 | 0.12 | 1.46 | 0.43 | 92 | 1012.1 |
| 20260509193815 | 68 | 146 | 1.0 | 3.0 | 0.11 | 1.44 | 0.41 | 92 | 1012.1 |
| 20260509193311 | 68 | 146 | 0.0 | 2.0 | 0.11 | 1.43 | 0.40 | 92 | 1012.1 |
| 20260509192808 | 68 | 145 | 0.0 | 2.0 | 0.11 | 1.42 | 0.39 | 93 | 1012.2 |
| 20260509192325 | 68 | 125 | 0.0 | 0.0 | 0.11 | 1.41 | 0.38 | 92 | 1012.5 |
| 20260509191305 | 68 | 125 | 0.0 | 1.0 | 0.11 | 1.39 | 0.36 | 92 | 1012.9 |
| 20260509190820 | 68 | 125 | 0.0 | 1.0 | 0.11 | 1.38 | 0.35 | 92 | 1012.7 |
| 20260509190315 | 68 | 125 | 0.0 | 0.0 | 0.11 | 1.37 | 0.34 | 92 | 1012.9 |
| 20260509185812 | 68 | 125 | 0.0 | 0.0 | 0.11 | 1.36 | 0.33 | 92 | 1012.6 |
| 20260509185308 | 68 | 125 | 0.0 | 0.0 | 0.11 | 1.35 | 0.32 | 92 | 1012.5 |
| 20260509184819 | 67 | 125 | 0.0 | 0.0 | 0.11 | 1.34 | 0.31 | 92 | 1012.5 |
| 20260509184315 | 67 | 125 | 0.0 | 0.0 | 0.12 | 1.34 | 0.31 | 92 | 1012.4 |
| 20260509183810 | 67 | 125 | 0.0 | 0.0 | 0.12 | 1.33 | 0.30 | 92 | 1012.4 |
| 20260509183307 | 67 | 125 | 0.0 | 0.0 | 0.12 | 1.32 | 0.29 | 92 | 1012.2 |
| 20260509182804 | 67 | 125 | 0.0 | 2.0 | 0.13 | 1.31 | 0.28 | 92 | 1012.6 |
| 20260509182301 | 67 | 125 | 0.0 | 3.0 | 0.13 | 1.30 | 0.27 | 92 | 1012.6 |
| 20260509181758 | 67 | 125 | 0.0 | 4.0 | 0.13 | 1.29 | 0.26 | 92 | 1012.4 |
| 20260509181314 | 67 | 130 | 2.0 | 4.0 | 0.13 | 1.28 | 0.25 | 92 | 1012.4 |
| 20260509180810 | 67 | 158 | 2.0 | 5.0 | 0.13 | 1.27 | 0.24 | 92 | 1012.5 |
| 20260509180305 | 67 | 132 | 0.0 | 5.0 | 0.13 | 1.26 | 0.23 | 92 | 1012.4 |
| 20260509175815 | 67 | 115 | 1.0 | 5.0 | 0.13 | 1.25 | 0.22 | 92 | 1012.3 |
| 20260509175311 | 67 | 121 | 2.0 | 5.0 | 0.13 | 1.24 | 0.21 | 92 | 1012.5 |
| 20260509174808 | 67 | 119 | 2.0 | 5.0 | 0.13 | 1.23 | 0.20 | 92 | 1012.4 |
| 20260509174304 | 67 | 123 | 0.0 | 6.0 | 0.13 | 1.22 | 0.19 | 92 | 1012.2 |
| 20260509173800 | 67 | 124 | 3.0 | 7.0 | 0.13 | 1.21 | 0.18 | 92 | 1012.3 |
| 20260509173316 | 67 | 134 | 1.0 | 5.0 | 0.13 | 1.20 | 0.17 | 92 | 1012.8 |
| 20260509172812 | 67 | 121 | 0.0 | 3.0 | 0.12 | 1.18 | 0.15 | 92 | 1012.9 |
| 20260509172307 | 67 | 148 | 0.0 | 5.0 | 0.12 | 1.17 | 0.14 | 92 | 1013.1 |
| 20260509171803 | 67 | 169 | 1.0 | 9.0 | 0.12 | 1.16 | 0.13 | 92 | 1013.0 |
| 20260509171300 | 67 | 103 | 1.0 | 9.0 | 0.12 | 1.15 | 0.12 | 92 | 1012.9 |
| 20260509170817 | 66 | 134 | 2.0 | 4.0 | 0.12 | 1.14 | 0.11 | 91 | 1013.2 |
| 20260509170314 | 66 | 132 | 1.0 | 4.0 | 0.12 | 1.13 | 0.10 | 91 | 1013.3 |
| 20260509165809 | 66 | 172 | 1.0 | 3.0 | 0.12 | 1.12 | 0.09 | 91 | 1013.2 |
| 20260509165325 | 66 | 70 | 0.0 | 4.0 | 0.12 | 1.11 | 0.08 | 91 | 1012.8 |
| 20260509164759 | 66 | 70 | 1.0 | 4.0 | 0.12 | 1.10 | 0.07 | 91 | 1013.1 |
| 20260509164317 | 66 | 70 | 0.0 | 5.0 | 0.12 | 1.09 | 0.06 | 91 | 1013.6 |
| 20260509163812 | 66 | 89 | 0.0 | 5.0 | 0.12 | 1.08 | 0.05 | 91 | 1013.7 |
| 20260509163328 | 66 | 86 | 0.0 | 5.0 | 0.12 | 1.07 | 0.04 | 90 | 1013.4 |
| 20260509162823 | 66 | 150 | 1.0 | 3.0 | 0.12 | 1.06 | 0.03 | 90 | 1013.3 |
| 20260509162319 | 66 | 153 | 0.0 | 9.0 | 0.12 | 1.05 | 0.02 | 90 | 1013.3 |
| 20260509161313 | 66 | 94 | 2.0 | 9.0 | 0.12 | 1.03 | 1.03 | 90 | 1013.2 |
| 20260509160809 | 67 | 63 | 4.0 | 8.0 | 0.12 | 1.02 | 1.02 | 90 | 1013.4 |
| 20260509160306 | 67 | 113 | 3.0 | 5.0 | 0.12 | 1.01 | 1.01 | 89 | 1013.9 |
| 20260509155819 | 67 | 76 | 3.0 | 8.0 | 0.12 | 1.00 | 1.00 | 89 | 1013.8 |
| 20260509155338 | 67 | 132 | 1.0 | 9.0 | 0.12 | 0.99 | 0.99 | 89 | 1013.3 |
| 20260509154813 | 67 | 63 | 4.0 | 14.0 | 0.13 | 0.98 | 0.98 | 89 | 1013.4 |
| 20260509154322 | 67 | 98 | 3.0 | 14.0 | 0.12 | 0.97 | 0.97 | 88 | 1013.2 |
| 20260509153837 | 67 | 80 | 1.0 | 9.0 | 0.13 | 0.96 | 0.96 | 88 | 1013.4 |
| 20260509153313 | 67 | 69 | 3.0 | 8.0 | 0.13 | 0.95 | 0.95 | 88 | 1013.1 |
| 20260509152810 | 67 | 114 | 3.0 | 9.0 | 0.13 | 0.94 | 0.94 | 88 | 1013.1 |
| 20260509152307 | 68 | 99 | 2.0 | 9.0 | 0.13 | 0.93 | 0.93 | 88 | 1012.9 |
| 20260509151803 | 68 | 82 | 1.0 | 9.0 | 0.13 | 0.92 | 0.92 | 89 | 1013.2 |
| 20260509151320 | 68 | 107 | 2.0 | 9.0 | 0.14 | 0.91 | 0.91 | 89 | 1013.2 |
| 20260509150815 | 68 | 89 | 1.0 | 10.0 | 0.14 | 0.90 | 0.90 | 89 | 1013.2 |
| 20260509150310 | 68 | 92 | 4.0 | 12.0 | 0.14 | 0.89 | 0.89 | 89 | 1012.9 |
| 20260509145806 | 68 | 59 | 3.0 | 11.0 | 0.14 | 0.88 | 0.88 | 89 | 1012.8 |
| 20260509145306 | 68 | 72 | 2.0 | 11.0 | 0.15 | 0.87 | 0.87 | 89 | 1013.0 |
| 20260509144759 | 68 | 65 | 1.0 | 8.0 | 0.14 | 0.85 | 0.85 | 89 | 1012.8 |
| 20260509144317 | 68 | 68 | 2.0 | 9.0 | 0.14 | 0.84 | 0.84 | 90 | 1012.7 |
| 20260509143813 | 69 | 43 | 3.0 | 9.0 | 0.15 | 0.83 | 0.83 | 90 | 1012.7 |
| 20260509143308 | 69 | 77 | 2.0 | 9.0 | 0.15 | 0.82 | 0.82 | 90 | 1013.0 |
| 20260509142804 | 69 | 168 | 2.0 | 8.0 | 0.16 | 0.81 | 0.81 | 90 | 1013.2 |
| 20260509142300 | 68 | 36 | 2.0 | 7.0 | 0.16 | 0.80 | 0.80 | 90 | 1013.1 |
| 20260509141816 | 69 | 54 | 2.0 | 6.0 | 0.16 | 0.79 | 0.79 | 90 | 1013.1 |
| 20260509141314 | 69 | 29 | 1.0 | 6.0 | 0.15 | 0.77 | 0.77 | 90 | 1013.3 |
| 20260509140810 | 69 | 360 | 2.0 | 6.0 | 0.15 | 0.76 | 0.76 | 90 | 1013.3 |
| 20260509140307 | 69 | 53 | 0.0 | 6.0 | 0.14 | 0.75 | 0.75 | 90 | 1013.4 |
| 20260509135316 | 69 | 5 | 1.0 | 6.0 | 0.11 | 0.72 | 0.72 | 90 | 1013.4 |
| 20260509134812 | 69 | 19 | 1.0 | 6.0 | 0.10 | 0.71 | 0.71 | 90 | 1013.3 |
| 20260509134309 | 69 | 9 | 1.0 | 5.0 | 0.08 | 0.69 | 0.70 | 89 | 1013.2 |
| 20260509133806 | 69 | 9 | 1.0 | 5.0 | 0.07 | 0.68 | 0.68 | 89 | 1013.0 |
| 20260509133302 | 69 | 69 | 2.0 | 5.0 | 0.06 | 0.67 | 0.67 | 88 | 1012.9 |
| 20260509132800 | 69 | 313 | 1.0 | 7.0 | 0.04 | 0.65 | 0.65 | 88 | 1013.1 |
| 20260509132317 | 69 | 348 | 1.0 | 10.0 | 0.03 | 0.64 | 0.64 | 87 | 1013.1 |
| 20260509131814 | 70 | 309 | 6.0 | 11.0 | 0.02 | 0.63 | 0.63 | 84 | 1013.2 |
| 20260509131310 | 71 | 313 | 3.0 | 11.0 | 0.01 | 0.62 | 0.62 | 81 | 1012.6 |
| 20260509130807 | 73 | 53 | 5.0 | 11.0 | 0.00 | 0.61 | 0.61 | 78 | 1012.9 |
| 20260509130323 | 75 | 47 | 0.0 | 2.0 | 0.00 | 0.61 | 0.61 | 86 | 1012.7 |
| 20260509125837 | 75 | 313 | 0.0 | 5.0 | 0.00 | 0.61 | 0.61 | 87 | 1011.3 |
| 20260509125314 | 75 | 193 | 2.0 | 6.0 | 0.00 | 0.61 | 0.61 | 86 | 1010.6 |
| 20260509124809 | 75 | 247 | 0.0 | 6.0 | 0.00 | 0.61 | 0.61 | 86 | 1010.5 |
| 20260509124305 | 74 | 217 | 2.0 | 6.0 | 0.00 | 0.61 | 0.61 | 86 | 1010.6 |
| 20260509123802 | 74 | 190 | 0.0 | 0.0 | 0.00 | 0.61 | 0.61 | 87 | 1010.7 |
| 20260509123257 | 74 | 203 | 0.0 | 5.0 | 0.00 | 0.61 | 0.61 | 87 | 1010.5 |
| 20260509122320 | 74 | 175 | 1.0 | 5.0 | 0.00 | 0.61 | 0.61 | 86 | 1010.4 |
| 20260509121811 | 73 | 201 | 2.0 | 6.0 | 0.00 | 0.61 | 0.61 | 86 | 1010.4 |
| 20260509121308 | 73 | 199 | 2.0 | 6.0 | 0.00 | 0.61 | 0.61 | 86 | 1010.2 |
| 20260509120805 | 73 | 319 | 0.0 | 1.0 | 0.00 | 0.61 | 0.61 | 86 | 1010.1 |
| 20260509120322 | 73 | 239 | 0.0 | 3.0 | 0.00 | 0.61 | 0.61 | 86 | 1010.2 |
| 20260509115839 | 73 | 209 | 0.0 | 4.0 | 0.00 | 0.61 | 0.61 | 85 | 1010.1 |
| 20260509115314 | 73 | 169 | 0.0 | 4.0 | 0.00 | 0.61 | 0.61 | 85 | 1010.1 |
| 20260509114830 | 73 | 187 | 1.0 | 4.0 | 0.00 | 0.61 | 0.61 | 85 | 1010.1 |
| 20260509114306 | 73 | 169 | 1.0 | 3.0 | 0.00 | 0.61 | 0.61 | 85 | 1010.2 |
| 20260509113802 | 73 | 180 | 0.0 | 0.0 | 0.00 | 0.61 | 0.61 | 85 | 1010.1 |
| 20260509113345 | 73 | 180 | 0.0 | 1.0 | 0.00 | 0.61 | 0.61 | 85 | 1009.8 |
| 20260509112819 | 73 | 159 | 0.0 | 2.0 | 0.00 | 0.61 | 0.61 | 84 | 1009.8 |
| 20260509112336 | 73 | 159 | 0.0 | 2.0 | 0.00 | 0.61 | 0.61 | 84 | 1009.8 |
| 20260509111832 | 73 | 159 | 0.0 | 1.0 | 0.00 | 0.61 | 0.61 | 84 | 1009.7 |
| 20260509111327 | 73 | 101 | 0.0 | 3.0 | 0.00 | 0.61 | 0.61 | 84 | 1009.7 |
| 20260509110802 | 73 | 73 | 0.0 | 5.0 | 0.00 | 0.61 | 0.61 | 84 | 1009.8 |
| 20260509110258 | 73 | 125 | 2.0 | 5.0 | 0.00 | 0.61 | 0.61 | 84 | 1009.7 |
| 20260509105815 | 73 | 141 | 0.0 | 1.0 | 0.00 | 0.61 | 0.61 | 83 | 1009.8 |
| 20260509105330 | 73 | 144 | 0.0 | 4.0 | 0.00 | 0.61 | 0.61 | 83 | 1009.8 |
| 20260509104807 | 73 | 148 | 1.0 | 4.0 | 0.00 | 0.61 | 0.61 | 83 | 1009.7 |
| 20260509104304 | 73 | 153 | 0.0 | 5.0 | 0.00 | 0.61 | 0.61 | 83 | 1009.6 |
| 20260509103801 | 73 | 160 | 0.0 | 5.0 | 0.00 | 0.61 | 0.61 | 83 | 1009.6 |
| 20260509103317 | 73 | 163 | 0.0 | 6.0 | 0.00 | 0.61 | 0.61 | 83 | 1009.4 |
| 20260509102814 | 73 | 159 | 1.0 | 6.0 | 0.00 | 0.61 | 0.61 | 82 | 1009.2 |
| 20260509101809 | 73 | 154 | 0.0 | 3.0 | 0.00 | 0.61 | 0.61 | 82 | 1009.1 |
| 20260509101305 | 73 | 115 | 1.0 | 4.0 | 0.00 | 0.61 | 0.61 | 82 | 1009.1 |
| 20260509100818 | 72 | 67 | 0.0 | 6.0 | 0.00 | 0.61 | 0.61 | 82 | 1009.0 |
| 20260509100335 | 72 | 142 | 1.0 | 6.0 | 0.00 | 0.61 | 0.61 | 82 | 1008.9 |
| 20260509095810 | 72 | 89 | 1.0 | 3.0 | 0.00 | 0.61 | 0.61 | 82 | 1009.0 |
| 20260509095327 | 72 | 163 | 1.0 | 3.0 | 0.00 | 0.61 | 0.61 | 82 | 1009.0 |
| 20260509094800 | 72 | 118 | 0.0 | 9.0 | 0.00 | 0.61 | 0.61 | 82 | 1009.1 |
| 20260509094316 | 72 | 66 | 2.0 | 9.0 | 0.00 | 0.61 | 0.61 | 82 | 1009.2 |
| 20260509093812 | 72 | 159 | 1.0 | 4.0 | 0.00 | 0.61 | 0.61 | 82 | 1009.3 |
| 20260509093328 | 72 | 146 | 0.0 | 8.0 | 0.00 | 0.61 | 0.61 | 82 | 1009.3 |
| 20260509092803 | 72 | 113 | 1.0 | 8.0 | 0.00 | 0.61 | 0.61 | 82 | 1009.1 |
| 20260509092300 | 72 | 121 | 1.0 | 7.0 | 0.00 | 0.61 | 0.61 | 81 | 1009.0 |
| 20260509091817 | 72 | 145 | 1.0 | 6.0 | 0.00 | 0.61 | 0.61 | 81 | 1009.2 |
| 20260509091312 | 72 | 90 | 1.0 | 6.0 | 0.00 | 0.61 | 0.61 | 81 | 1009.4 |
| 20260509090809 | 72 | 178 | 0.0 | 3.0 | 0.00 | 0.61 | 0.61 | 81 | 1009.5 |
| 20260509090325 | 72 | 192 | 1.0 | 4.0 | 0.00 | 0.61 | 0.61 | 81 | 1009.5 |
| 20260509085759 | 72 | 225 | 0.0 | 6.0 | 0.00 | 0.61 | 0.61 | 81 | 1009.4 |
| 20260509085317 | 72 | 211 | 1.0 | 7.0 | 0.00 | 0.61 | 0.61 | 81 | 1009.6 |
| 20260509084813 | 72 | 163 | 1.0 | 4.0 | 0.00 | 0.61 | 0.61 | 81 | 1009.5 |
| 20260509084309 | 72 | 159 | 0.0 | 5.0 | 0.00 | 0.61 | 0.61 | 81 | 1009.7 |
| 20260509083803 | 72 | 151 | 1.0 | 5.0 | 0.00 | 0.61 | 0.61 | 81 | 1010.0 |
| 20260509083320 | 72 | 164 | 2.0 | 5.0 | 0.00 | 0.61 | 0.61 | 81 | 1010.1 |
| 20260509082815 | 72 | 177 | 2.0 | 7.0 | 0.00 | 0.61 | 0.61 | 81 | 1010.0 |
| 20260509082311 | 72 | 161 | 2.0 | 7.0 | 0.00 | 0.61 | 0.61 | 80 | 1010.0 |
| 20260509081806 | 72 | 107 | 1.0 | 5.0 | 0.00 | 0.61 | 0.61 | 81 | 1010.2 |
| 20260509081322 | 72 | 175 | 1.0 | 7.0 | 0.00 | 0.61 | 0.61 | 81 | 1010.2 |
| 20260509080818 | 72 | 168 | 2.0 | 9.0 | 0.00 | 0.61 | 0.61 | 81 | 1010.2 |
| 20260509080335 | 72 | 111 | 1.0 | 9.0 | 0.00 | 0.61 | 0.61 | 81 | 1010.5 |
| 20260509075810 | 72 | 155 | 0.0 | 4.0 | 0.00 | 0.61 | 0.61 | 82 | 1010.5 |
| 20260509075307 | 72 | 133 | 1.0 | 4.0 | 0.00 | 0.61 | 0.61 | 82 | 1010.2 |
| 20260509074803 | 72 | 110 | 0.0 | 3.0 | 0.00 | 0.61 | 0.61 | 82 | 1010.2 |
| 20260509074314 | 72 | 153 | 1.0 | 4.0 | 0.00 | 0.61 | 0.61 | 83 | 1010.5 |
| 20260509073832 | 72 | 142 | 1.0 | 4.0 | 0.00 | 0.61 | 0.61 | 83 | 1010.9 |
| 20260509073306 | 72 | 123 | 0.0 | 2.0 | 0.00 | 0.61 | 0.61 | 83 | 1011.0 |
| 20260509072803 | 72 | 123 | 0.0 | 2.0 | 0.00 | 0.61 | 0.61 | 84 | 1011.1 |
| 20260509072258 | 72 | 123 | 0.0 | 4.0 | 0.00 | 0.61 | 0.61 | 83 | 1011.0 |
| 20260509071814 | 72 | 123 | 0.0 | 4.0 | 0.00 | 0.61 | 0.61 | 83 | 1011.2 |
| 20260509071303 | 72 | 153 | 0.0 | 1.0 | 0.00 | 0.61 | 0.61 | 84 | 1011.2 |
| 20260509070800 | 72 | 146 | 0.0 | 2.0 | 0.00 | 0.61 | 0.61 | 84 | 1011.1 |
| 20260509070316 | 71 | 163 | 0.0 | 2.0 | 0.00 | 0.61 | 0.61 | 84 | 1011.4 |
| 20260509065813 | 71 | 171 | 0.0 | 4.0 | 0.00 | 0.61 | 0.61 | 84 | 1011.6 |
| 20260509065309 | 71 | 74 | 0.0 | 4.0 | 0.00 | 0.61 | 0.61 | 86 | 1011.6 |
| 20260509064807 | 71 | 74 | 0.0 | 4.0 | 0.00 | 0.61 | 0.61 | 86 | 1011.7 |
| 20260509064303 | 71 | 88 | 0.0 | 0.0 | 0.00 | 0.61 | 0.61 | 88 | 1011.8 |
| 20260509063819 | 71 | 88 | 0.0 | 0.0 | 0.00 | 0.61 | 0.61 | 88 | 1012.0 |
| 20260509063335 | 71 | 88 | 0.0 | 0.0 | 0.00 | 0.61 | 0.61 | 88 | 1012.1 |
| 20260509062811 | 71 | 88 | 0.0 | 0.0 | 0.00 | 0.61 | 0.61 | 88 | 1012.1 |
| 20260509062306 | 70 | 88 | 0.0 | 0.0 | 0.00 | 0.61 | 0.61 | 88 | 1011.9 |
| 20260509061803 | 70 | 88 | 0.0 | 0.0 | 0.00 | 0.61 | 0.61 | 88 | 1011.7 |
| 20260509061259 | 71 | 125 | 0.0 | 0.0 | 0.00 | 0.61 | 0.61 | 89 | 1011.6 |
| 20260509060815 | 70 | 125 | 0.0 | 0.0 | 0.00 | 0.61 | 0.61 | 89 | 1011.8 |
| 20260509060312 | 70 | 125 | 0.0 | 0.0 | 0.00 | 0.61 | 0.61 | 89 | 1012.1 |
| 20260509055828 | 70 | 125 | 0.0 | 0.0 | 0.00 | 0.61 | 0.61 | 89 | 1012.3 |
| 20260509055306 | 70 | 125 | 0.0 | 0.0 | 0.00 | 0.61 | 0.61 | 89 | 1012.4 |
| 20260509054818 | 70 | 125 | 0.0 | 0.0 | 0.00 | 0.61 | 0.61 | 89 | 1012.4 |
| 20260509054313 | 70 | 125 | 0.0 | 0.0 | 0.00 | 0.61 | 0.61 | 89 | 1012.5 |
| 20260509053811 | 70 | 125 | 0.0 | 0.0 | 0.00 | 0.61 | 0.61 | 88 | 1012.3 |
| 20260509053307 | 71 | 125 | 0.0 | 0.0 | 0.00 | 0.61 | 0.61 | 88 | 1011.9 |
| 20260509052804 | 71 | 125 | 0.0 | 0.0 | 0.00 | 0.61 | 0.61 | 88 | 1012.0 |
| 20260509052300 | 71 | 125 | 0.0 | 0.0 | 0.00 | 0.61 | 0.61 | 88 | 1012.1 |
| 20260509051817 | 71 | 125 | 0.0 | 0.0 | 0.00 | 0.61 | 0.61 | 88 | 1012.0 |
| 20260509051314 | 71 | 125 | 0.0 | 0.0 | 0.00 | 0.61 | 0.61 | 88 | 1012.0 |
| 20260509050809 | 71 | 125 | 0.0 | 0.0 | 0.00 | 0.61 | 0.61 | 89 | 1012.0 |
| 20260509050305 | 71 | 125 | 0.0 | 0.0 | 0.00 | 0.61 | 0.61 | 89 | 1011.9 |
| 20260509045813 | 71 | 125 | 0.0 | 0.0 | 0.00 | 0.61 | 0.61 | 89 | 1011.8 |
| 20260509045309 | 71 | 125 | 0.0 | 0.0 | 0.00 | 0.61 | 0.61 | 89 | 1011.8 |
| 20260509044806 | 71 | 125 | 0.0 | 0.0 | 0.00 | 0.61 | 0.61 | 89 | 1012.0 |
| 20260509044303 | 71 | 169 | 0.0 | 0.0 | 0.00 | 0.61 | 0.61 | 89 | 1012.2 |
| 20260509043759 | 71 | 169 | 0.0 | 0.0 | 0.00 | 0.61 | 0.61 | 89 | 1011.9 |
| 20260509043315 | 71 | 169 | 0.0 | 0.0 | 0.00 | 0.61 | 0.61 | 89 | 1011.9 |
| 20260509042810 | 71 | 169 | 0.0 | 0.0 | 0.00 | 0.61 | 0.61 | 89 | 1011.6 |
| 20260509042307 | 71 | 169 | 0.0 | 0.0 | 0.00 | 0.61 | 0.61 | 89 | 1011.7 |
| 20260509041803 | 71 | 107 | 0.0 | 0.0 | 0.00 | 0.61 | 0.61 | 89 | 1011.8 |
| 20260509041259 | 71 | 134 | 0.0 | 0.0 | 0.00 | 0.61 | 0.61 | 90 | 1011.7 |
| 20260509040817 | 70 | 119 | 0.0 | 2.0 | 0.00 | 0.61 | 0.61 | 90 | 1011.6 |
| 20260509040312 | 70 | 119 | 0.0 | 6.0 | 0.00 | 0.61 | 0.61 | 90 | 1011.6 |
| 20260509035808 | 70 | 127 | 1.0 | 6.0 | 0.00 | 0.61 | 0.61 | 90 | 1011.5 |
| 20260509035306 | 70 | 117 | 0.0 | 3.0 | 0.00 | 0.61 | 0.61 | 90 | 1011.4 |
| 20260509034800 | 70 | 165 | 0.0 | 2.0 | 0.00 | 0.61 | 0.61 | 90 | 1011.3 |
| 20260509034313 | 70 | 165 | 0.0 | 2.0 | 0.00 | 0.61 | 0.61 | 90 | 1011.2 |
| 20260509033830 | 70 | 126 | 0.0 | 4.0 | 0.00 | 0.61 | 0.61 | 90 | 1011.2 |
| 20260509033305 | 70 | 144 | 1.0 | 5.0 | 0.00 | 0.61 | 0.61 | 90 | 1011.3 |
| 20260509032802 | 70 | 130 | 0.0 | 5.0 | 0.00 | 0.61 | 0.61 | 90 | 1011.1 |
| 20260509032259 | 70 | 166 | 0.0 | 4.0 | 0.00 | 0.61 | 0.61 | 90 | 1011.1 |
| 20260509031814 | 70 | 154 | 1.0 | 4.0 | 0.00 | 0.61 | 0.61 | 90 | 1011.2 |
| 20260509031324 | 70 | 132 | 1.0 | 3.0 | 0.00 | 0.61 | 0.61 | 90 | 1011.4 |
| 20260509030800 | 70 | 132 | 0.0 | 0.0 | 0.00 | 0.61 | 0.61 | 90 | 1011.6 |
| 20260509030316 | 70 | 132 | 0.0 | 0.0 | 0.00 | 0.61 | 0.61 | 90 | 1011.7 |
| 20260509025811 | 70 | 132 | 0.0 | 0.0 | 0.00 | 0.61 | 0.61 | 90 | 1011.7 |
| 20260509025307 | 70 | 132 | 0.0 | 0.0 | 0.00 | 0.61 | 0.61 | 90 | 1011.7 |
| 20260509024823 | 70 | 132 | 0.0 | 0.0 | 0.00 | 0.61 | 0.61 | 90 | 1011.6 |
| 20260509024340 | 70 | 132 | 0.0 | 0.0 | 0.00 | 0.61 | 0.61 | 90 | 1011.6 |
| 20260509023836 | 70 | 132 | 0.0 | 0.0 | 0.00 | 0.61 | 0.61 | 90 | 1011.5 |
| 20260509023311 | 70 | 132 | 0.0 | 1.0 | 0.00 | 0.61 | 0.61 | 90 | 1011.4 |
| 20260509022808 | 70 | 132 | 0.0 | 0.0 | 0.00 | 0.61 | 0.61 | 90 | 1011.2 |
| 20260509022324 | 70 | 46 | 0.0 | 2.0 | 0.00 | 0.61 | 0.61 | 90 | 1011.1 |
| 20260509021818 | 70 | 45 | 0.0 | 2.0 | 0.00 | 0.61 | 0.61 | 90 | 1011.0 |
| 20260509021318 | 70 | 351 | 0.0 | 2.0 | 0.00 | 0.61 | 0.61 | 90 | 1010.8 |
| 20260509020815 | 70 | 151 | 0.0 | 2.0 | 0.00 | 0.61 | 0.61 | 90 | 1010.7 |
| 20260509020332 | 70 | 117 | 0.0 | 4.0 | 0.00 | 0.61 | 0.61 | 90 | 1010.8 |
| 20260509015805 | 69 | 113 | 1.0 | 4.0 | 0.00 | 0.61 | 0.61 | 90 | 1011.0 |
| 20260509015301 | 69 | 94 | 0.0 | 4.0 | 0.00 | 0.61 | 0.61 | 90 | 1010.9 |
| 20260509014815 | 69 | 87 | 2.0 | 4.0 | 0.00 | 0.61 | 0.61 | 90 | 1010.8 |
| 20260509014311 | 69 | 142 | 1.0 | 4.0 | 0.00 | 0.61 | 0.61 | 90 | 1010.9 |
| 20260509013807 | 69 | 113 | 2.0 | 4.0 | 0.00 | 0.61 | 0.61 | 89 | 1010.8 |
| 20260509013304 | 69 | 146 | 0.0 | 6.0 | 0.00 | 0.61 | 0.61 | 89 | 1010.7 |
| 20260509012759 | 69 | 102 | 1.0 | 6.0 | 0.00 | 0.61 | 0.61 | 89 | 1010.7 |
| 20260509012318 | 69 | 151 | 3.0 | 7.0 | 0.00 | 0.61 | 0.61 | 89 | 1010.6 |
| 20260509011813 | 69 | 153 | 2.0 | 8.0 | 0.00 | 0.61 | 0.61 | 89 | 1010.7 |